Regional Weather Roundup
Issued by NWS

Home | Current Version | Previous Version | Text Only | Print | Product List | Glossary Off
Versions: 1 2 3 4 5 6 7 8 9 10 11 12 13 14 15 16 17 18 19 20 21 22 23 24 25 26 27 28 29 30 31 32 33 34 35 36 37 38 39 40 41 42 43 44 45 46 47 48 49 50

848
ASUS45 KCYS 281510
RWRWY

WYOMING REGIONAL WEATHER ROUNDUP
NATIONAL WEATHER SERVICE CHEYENNE WY
900 AM MDT WED SEP 28 2016

NOTE:  "FAIR" INDICATES FEW OR NO CLOUDS BELOW 12,000 FEET
WITH NO SIGNIFICANT WEATHER AND/OR OBSTRUCTIONS TO VISIBILITY.

WYZ001-281600-
YELLOWSTONE NATIONAL PARK

CITY           SKY/WX    TMP DP  RH WIND       PRES   REMARKS
LK YELLOWSTONE   N/A     41  38  89 CALM      30.43S
W YELLOWSTONE  NOT AVBL

$$
WYZ002>013-054>058-071-098>099-281600-
NORTHERN WYOMING

CITY           SKY/WX    TMP DP  RH WIND       PRES   REMARKS
JACKSON        SUNNY     34  34 100 CALM      30.39
CODY           FAIR      54  42  64 NE3       30.34R
GREYBULL       FAIR      51  47  86 CALM      30.28R
WORLAND        FAIR      52  45  77 SW8       30.27R
SHERIDAN       FAIR      59  46  62 NW6       30.30R
BUFFALO        FAIR      67  41  38 CALM      30.34R
GILLETTE       FAIR      60  48  64 CALM      30.30R
HULETT         FAIR      63  46  55 CALM      30.31R
NEWCASTLE      FAIR      59  37  44 CALM      30.31R

$$
WYZ014>020-022>026-101>103-281600-
CENTRAL WYOMING

CITY           SKY/WX    TMP DP  RH WIND       PRES   REMARKS
BIG PINEY      FAIR      44  35  70 E3        30.42R
PINEDALE       FAIR      43  34  70 NW7       30.42S
DUBOIS         FAIR      45  34  65 NW9       30.43R
LANDER         FAIR      54  39  57 SE6       30.34R
RIVERTON       FAIR      54  45  71 CALM      30.35R
CASPER         FAIR      54  41  61 VRB5      30.35R
DOUGLAS        FAIR      52  41  66 N6        30.35R

$$
WYZ021-027>030-104>119-281600-
SOUTHERN WYOMING

CITY           SKY/WX    TMP DP  RH WIND       PRES   REMARKS
EVANSTON       FAIR      52  35  52 E9        30.36R
FORT BRIDGER   FAIR      51  37  59 CALM      30.41R
ROCK SPRINGS   FAIR      51  38  60 E5        30.38R
DIXON          FAIR      53  36  52 SE5       30.40R
RAWLINS        FAIR      50  33  52 CALM      30.40R
SARATOGA       FAIR      45  34  65 W5        30.42R
LARAMIE        FAIR      49  35  58 CALM      30.43R
CHEYENNE       FAIR      60  36  40 CALM      30.38R
TORRINGTON     FAIR      54  41  61 W5        30.30R
PINE BLUFFS    FAIR      59  37  44 CALM      30.35R

$$




USA.gov is the U.S. government's official web portal to all federal, state and local government web resources and services.